| time (UTC) | temp C | wind direction | speed KPH | gust KPH | rain 1hr cm | rain 24hr cm | rain mn cm | humidity % | barometer mb |
| 20260903130926 | 21 | 45 | 0.0 | 0.0 | 0.00 | 1.65 | 1.60 | 97 | 1037.6 |
| 20260903125926 | 21 | 45 | 0.0 | 0.0 | 0.00 | 1.65 | 1.60 | 97 | 1037.9 |
| 20260903124926 | 21 | 45 | 0.0 | 0.0 | 0.00 | 1.65 | 1.60 | 96 | 1037.7 |
| 20260903121026 | 20 | 45 | 0.0 | 0.0 | 0.00 | 1.65 | 1.60 | 97 | 1037.3 |
| 20260903120027 | 20 | 225 | 0.0 | 0.0 | 0.00 | 1.65 | 1.60 | 97 | 1037.5 |
| 20260903115125 | 20 | 315 | 0.0 | 1.6 | 0.00 | 1.65 | 1.60 | 96 | 1036.6 |
| 20260903115029 | 20 | 315 | 0.0 | 0.0 | 0.00 | 1.65 | 1.60 | 97 | 1036.8 |
| 20260903114125 | 20 | 315 | 0.0 | 0.0 | 0.00 | 1.65 | 1.60 | 97 | 1037.8 |
| 20260903113126 | 20 | 315 | 0.0 | 0.0 | 0.00 | 1.65 | 1.60 | 97 | 1038.0 |
| 20260903112126 | 20 | 315 | 0.0 | 0.0 | 0.00 | 1.65 | 1.60 | 97 | 1038.1 |
| 20260903111126 | 20 | 315 | 0.0 | 0.0 | 0.00 | 1.65 | 1.60 | 97 | 1038.4 |
| 20260903105225 | 20 | 315 | 0.0 | 0.0 | 0.03 | 1.65 | 1.60 | 97 | 1039.0 |
| 20260903104226 | 20 | 315 | 0.0 | 0.0 | 0.05 | 1.65 | 1.60 | 96 | 1038.9 |
| 20260903103228 | 20 | 315 | 0.0 | 0.0 | 0.08 | 1.65 | 1.60 | 97 | 1038.5 |
| 20260903102227 | 20 | 337 | 0.0 | 0.0 | 0.15 | 1.65 | 1.60 | 97 | 1038.4 |
| 20260903101326 | 20 | 337 | 0.0 | 0.0 | 0.20 | 1.65 | 1.60 | 96 | 1038.5 |
| 20260903100326 | 20 | 337 | 0.0 | 0.0 | 0.28 | 1.65 | 1.60 | 97 | 1038.7 |
| 20260903095326 | 20 | 360 | 0.0 | 0.0 | 0.33 | 1.63 | 1.57 | 97 | 1038.0 |
| 20260903094326 | 20 | 45 | 0.0 | 0.0 | 0.33 | 1.60 | 1.55 | 97 | 1038.3 |
| 20260903093326 | 20 | 135 | 0.0 | 0.0 | 0.38 | 1.57 | 1.52 | 97 | 1038.7 |
| 20260903092328 | 20 | 135 | 0.0 | 0.0 | 0.43 | 1.50 | 1.45 | 95 | 1039.1 |
| 20260903091327 | 20 | 135 | 0.0 | 0.0 | 0.38 | 1.45 | 1.40 | 96 | 1038.8 |
| 20260903090426 | 20 | 135 | 0.0 | 0.0 | 0.30 | 1.37 | 1.32 | 96 | 1038.5 |
| 20260903085425 | 20 | 135 | 0.0 | 0.0 | 0.25 | 1.30 | 1.24 | 96 | 1039.2 |
| 20260903083426 | 20 | 135 | 0.0 | 0.0 | 0.15 | 1.19 | 1.14 | 96 | 1040.0 |
| 20260903083328 | 20 | 135 | 0.0 | 0.0 | 0.15 | 1.19 | 1.12 | 96 | 1040.0 |
| 20260903082427 | 20 | 135 | 0.0 | 0.0 | 0.03 | 1.07 | 1.02 | 95 | 1040.5 |
| 20260903081427 | 20 | 135 | 0.0 | 0.0 | 0.03 | 1.07 | 1.02 | 96 | 1039.8 |
| 20260903081326 | 20 | 135 | 0.0 | 0.0 | 0.03 | 1.07 | 1.02 | 96 | 1039.6 |
| 20260903081225 | 20 | 135 | 0.0 | 0.0 | 0.03 | 1.07 | 1.02 | 96 | 1039.5 |
| 20260903080225 | 20 | 135 | 0.0 | 0.0 | 0.00 | 1.04 | 0.99 | 96 | 1040.0 |
| 20260903075224 | 20 | 135 | 0.0 | 0.0 | 0.00 | 1.04 | 0.99 | 95 | 1039.9 |
| 20260903075126 | 20 | 135 | 0.0 | 0.0 | 0.00 | 1.04 | 0.99 | 95 | 1039.9 |
| 20260903074126 | 20 | 135 | 0.0 | 0.0 | 0.00 | 1.04 | 0.99 | 94 | 1039.6 |
| 20260903073225 | 20 | 135 | 0.0 | 0.0 | 0.03 | 1.04 | 0.99 | 94 | 1039.4 |
| 20260903073125 | 20 | 135 | 0.0 | 0.0 | 0.03 | 1.04 | 0.99 | 94 | 1039.4 |
| 20260903072127 | 20 | 135 | 0.0 | 0.0 | 0.03 | 1.04 | 0.99 | 95 | 1039.3 |
| 20260903071225 | 20 | 135 | 0.0 | 0.0 | 0.10 | 1.04 | 0.99 | 95 | 1039.3 |
| 20260903065227 | 20 | 135 | 0.0 | 0.0 | 0.89 | 1.04 | 0.99 | 94 | 1039.1 |
| 20260903065125 | 20 | 135 | 0.0 | 0.0 | 0.91 | 1.04 | 0.99 | 95 | 1039.1 |
| 20260903063227 | 20 | 135 | 0.0 | 0.0 | 0.94 | 1.02 | 0.97 | 94 | 1039.7 |
| 20260903062226 | 20 | 135 | 0.0 | 0.0 | 0.97 | 1.02 | 0.97 | 93 | 1039.8 |
| 20260903061227 | 20 | 135 | 0.0 | 0.0 | 0.89 | 0.94 | 0.89 | 93 | 1039.2 |
| 20260903061125 | 20 | 135 | 0.0 | 0.0 | 0.89 | 0.94 | 0.89 | 94 | 1039.2 |
| 20260903060128 | 20 | 135 | 0.0 | 0.0 | 0.71 | 0.79 | 0.69 | 93 | 1040.2 |
| 20260903055126 | 20 | 135 | 0.0 | 0.0 | 0.08 | 0.13 | 0.08 | 93 | 1041.8 |
| 20260903055028 | 20 | 135 | 0.0 | 0.0 | 0.08 | 0.13 | 0.05 | 93 | 1041.7 |
| 20260903053127 | 21 | 360 | 0.0 | 0.0 | 0.03 | 0.08 | 0.03 | 92 | 1040.6 |
| 20260903052127 | 21 | 360 | 0.0 | 0.0 | 0.00 | 0.05 | 0.00 | 91 | 1040.6 |
| 20260903044126 | 21 | 360 | 0.0 | 0.0 | 0.00 | 0.05 | 0.00 | 92 | 1040.2 |
| 20260903043224 | 21 | 360 | 0.0 | 0.0 | 0.00 | 0.05 | 0.00 | 92 | 1040.3 |
| 20260903042227 | 21 | 360 | 0.0 | 0.0 | 0.00 | 0.05 | 0.00 | 92 | 1040.4 |
| 20260903041228 | 21 | 360 | 0.0 | 0.0 | 0.00 | 0.05 | 0.00 | 91 | 1040.5 |
| 20260903040226 | 21 | 360 | 0.0 | 0.0 | 0.00 | 0.05 | 0.00 | 92 | 1040.7 |
| 20260903035324 | 21 | 360 | 0.0 | 0.0 | 0.00 | 0.05 | 0.05 | 92 | 1040.8 |
| 20260903034325 | 21 | 360 | 0.0 | 0.0 | 0.00 | 0.05 | 0.05 | 93 | 1040.9 |
| 20260903033423 | 21 | 360 | 0.0 | 0.0 | 0.00 | 0.05 | 0.05 | 93 | 1041.2 |
| 20260903032423 | 21 | 360 | 0.0 | 0.0 | 0.00 | 0.05 | 0.05 | 93 | 1040.8 |
| 20260903031426 | 21 | 5 | 0.0 | 0.0 | 0.00 | 0.05 | 0.05 | 92 | 1040.4 |
| 20260903030524 | 21 | 45 | 0.0 | 0.0 | 0.00 | 0.05 | 0.05 | 93 | 1040.6 |
| 20260903022525 | 21 | 315 | 0.0 | 0.0 | 0.00 | 0.05 | 0.05 | 92 | 1040.9 |
| 20260903021526 | 21 | 315 | 0.0 | 0.0 | 0.00 | 0.05 | 0.05 | 92 | 1040.9 |
| 20260903015623 | 21 | 315 | 0.0 | 0.0 | 0.00 | 0.05 | 0.05 | 91 | 1040.3 |
| 20260903014626 | 21 | 315 | 0.0 | 0.0 | 0.00 | 0.05 | 0.05 | 91 | 1040.3 |
| 20260903013723 | 21 | 315 | 0.0 | 0.0 | 0.00 | 0.05 | 0.05 | 91 | 1040.4 |
| 20260903012725 | 21 | 315 | 0.0 | 0.0 | 0.00 | 0.05 | 0.05 | 90 | 1040.5 |
| 20260903011726 | 21 | 298 | 0.0 | 0.0 | 0.00 | 0.05 | 0.05 | 90 | 1040.7 |
| 20260903005824 | 21 | 292 | 0.0 | 0.0 | 0.00 | 0.08 | 0.05 | 91 | 1040.8 |
| 20260903004824 | 21 | 292 | 0.0 | 0.0 | 0.00 | 0.08 | 0.05 | 91 | 1040.8 |
| 20260903003825 | 21 | 292 | 0.0 | 0.0 | 0.00 | 0.08 | 0.05 | 90 | 1040.8 |
| 20260903002825 | 21 | 292 | 0.0 | 0.0 | 0.00 | 0.10 | 0.05 | 90 | 1040.5 |
| 20260903001824 | 21 | 292 | 0.0 | 0.0 | 0.00 | 0.10 | 0.05 | 91 | 1040.5 |
| 20260903000825 | 21 | 270 | 0.0 | 0.0 | 0.00 | 0.10 | 0.05 | 91 | 1040.3 |
| 20260902234923 | 21 | 270 | 0.0 | 0.0 | 0.00 | 0.10 | 0.05 | 91 | 1040.2 |
| 20260902233823 | 21 | 270 | 0.0 | 0.0 | 0.00 | 0.10 | 0.05 | 90 | 1040.3 |
| 20260902232922 | 21 | 270 | 0.0 | 0.0 | 0.00 | 0.10 | 0.05 | 90 | 1040.3 |
| 20260902231924 | 21 | 270 | 0.0 | 0.0 | 0.00 | 0.10 | 0.05 | 90 | 1040.2 |
| 20260902231023 | 21 | 270 | 0.0 | 0.0 | 0.00 | 0.10 | 0.05 | 90 | 1040.2 |
| 20260902230023 | 21 | 270 | 0.0 | 0.0 | 0.00 | 0.10 | 0.05 | 90 | 1040.4 |
| 20260902225123 | 21 | 270 | 0.0 | 0.0 | 0.00 | 0.10 | 0.05 | 90 | 1040.5 |
| 20260902224125 | 21 | 270 | 0.0 | 0.0 | 0.00 | 0.10 | 0.05 | 90 | 1040.6 |
| 20260902223125 | 21 | 270 | 0.0 | 0.0 | 0.00 | 0.10 | 0.05 | 91 | 1040.7 |
| 20260902221127 | 21 | 315 | 0.0 | 0.0 | 0.00 | 0.10 | 0.05 | 90 | 1041.1 |
| 20260902221025 | 21 | 315 | 0.0 | 0.0 | 0.00 | 0.10 | 0.05 | 91 | 1041.1 |
| 20260902214123 | 21 | 315 | 0.0 | 0.0 | 0.00 | 0.10 | 0.05 | 91 | 1040.9 |
| 20260902213125 | 21 | 315 | 0.0 | 0.0 | 0.00 | 0.10 | 0.05 | 90 | 1040.7 |
| 20260902212140 | 21 | 315 | 0.0 | 0.0 | 0.00 | 0.10 | 0.05 | 91 | 1040.4 |
| 20260902204224 | 22 | 360 | 0.0 | 0.0 | 0.00 | 0.10 | 0.05 | 90 | 1040.7 |
| 20260902204123 | 22 | 360 | 0.0 | 0.0 | 0.00 | 0.10 | 0.05 | 91 | 1040.7 |
| 20260902203125 | 22 | 337 | 0.0 | 0.0 | 0.00 | 0.10 | 0.05 | 92 | 1040.7 |
| 20260902202224 | 21 | 337 | 0.0 | 0.0 | 0.00 | 0.10 | 0.05 | 91 | 1040.6 |
| 20260902201227 | 21 | 337 | 0.0 | 0.0 | 0.00 | 0.10 | 0.05 | 93 | 1040.5 |
| 20260902200225 | 21 | 337 | 0.0 | 1.6 | 0.00 | 0.10 | 0.05 | 93 | 1040.6 |
| 20260902195226 | 21 | 360 | 0.0 | 0.0 | 0.00 | 0.10 | 0.05 | 93 | 1040.6 |
| 20260902193423 | 21 | 360 | 0.0 | 0.0 | 0.00 | 0.10 | 0.05 | 93 | 1040.8 |
| 20260902192325 | 21 | 360 | 0.0 | 0.0 | 0.00 | 0.10 | 0.05 | 92 | 1041.1 |
| 20260902191424 | 21 | 360 | 0.0 | 0.0 | 0.00 | 0.10 | 0.05 | 92 | 1041.1 |
| 20260902190523 | 21 | 360 | 0.0 | 0.0 | 0.00 | 0.10 | 0.05 | 92 | 1041.4 |
| 20260902185527 | 21 | 360 | 0.0 | 0.0 | 0.00 | 0.10 | 0.05 | 91 | 1041.4 |
| 20260902185425 | 21 | 360 | 0.0 | 0.0 | 0.00 | 0.10 | 0.05 | 90 | 1041.6 |
| 20260902184425 | 21 | 360 | 0.0 | 0.0 | 0.00 | 0.10 | 0.05 | 91 | 1041.6 |
| 20260902183524 | 21 | 360 | 0.0 | 0.0 | 0.00 | 0.10 | 0.05 | 91 | 1041.6 |
| 20260902182541 | 21 | 360 | 0.0 | 0.0 | 0.00 | 0.10 | 0.05 | 90 | 1041.8 |
| 20260902181523 | 21 | 360 | 0.0 | 0.0 | 0.00 | 0.10 | 0.05 | 90 | 1042.0 |
| 20260902180524 | 21 | 360 | 0.0 | 0.0 | 0.00 | 0.10 | 0.05 | 89 | 1041.8 |
| 20260902175523 | 21 | 360 | 0.0 | 0.0 | 0.00 | 0.10 | 0.05 | 89 | 1041.6 |
| 20260902173525 | 22 | 360 | 0.0 | 0.0 | 0.00 | 0.10 | 0.05 | 88 | 1041.7 |
| 20260902172524 | 22 | 360 | 0.0 | 0.0 | 0.00 | 0.10 | 0.05 | 88 | 1042.2 |
| 20260902172423 | 22 | 360 | 0.0 | 0.0 | 0.00 | 0.10 | 0.05 | 88 | 1042.2 |
| 20260902170425 | 22 | 360 | 0.0 | 0.0 | 0.00 | 0.10 | 0.05 | 86 | 1042.6 |
| 20260902165424 | 22 | 360 | 0.0 | 0.0 | 0.00 | 0.10 | 0.05 | 86 | 1042.8 |
| 20260902164423 | 22 | 360 | 0.0 | 0.0 | 0.03 | 0.10 | 0.05 | 87 | 1042.8 |
| 20260902163426 | 22 | 360 | 0.0 | 0.0 | 0.03 | 0.10 | 0.05 | 87 | 1042.6 |
| 20260902162427 | 22 | 360 | 0.0 | 0.0 | 0.03 | 0.10 | 0.05 | 86 | 1042.7 |
| 20260902161524 | 22 | 360 | 0.0 | 0.0 | 0.03 | 0.10 | 0.05 | 87 | 1042.4 |
| 20260902161425 | 22 | 360 | 0.0 | 0.0 | 0.03 | 0.10 | 0.05 | 87 | 1042.3 |
| 20260902160424 | 22 | 360 | 0.0 | 0.0 | 0.03 | 0.10 | 0.05 | 87 | 1042.3 |
| 20260902155424 | 21 | 360 | 0.0 | 0.0 | 0.05 | 0.10 | 0.03 | 87 | 1042.1 |
| 20260902154425 | 21 | 360 | 0.0 | 1.6 | 0.03 | 0.08 | 0.03 | 87 | 1042.3 |
| 20260902151524 | 21 | 360 | 0.0 | 0.0 | 0.03 | 0.08 | 0.03 | 88 | 1042.3 |
| 20260902150524 | 21 | 360 | 0.0 | 0.0 | 0.03 | 0.08 | 0.03 | 88 | 1042.3 |
| 20260902145524 | 21 | 360 | 0.0 | 0.0 | 0.00 | 0.05 | 0.00 | 89 | 1042.5 |
| 20260902144524 | 21 | 360 | 0.0 | 0.0 | 0.00 | 0.05 | 0.00 | 89 | 1042.6 |
| 20260902143623 | 21 | 360 | 0.0 | 0.0 | 0.00 | 0.05 | 0.00 | 89 | 1042.6 |
| 20260902142625 | 21 | 236 | 0.0 | 0.0 | 0.00 | 0.05 | 0.00 | 88 | 1042.3 |
| 20260902141624 | 21 | 225 | 0.0 | 0.0 | 0.00 | 0.05 | 0.00 | 89 | 1042.1 |
| 20260902140640 | 21 | 360 | 0.0 | 1.6 | 0.00 | 0.05 | 0.00 | 89 | 1042.3 |
| 20260902140523 | 21 | 360 | 0.0 | 0.0 | 0.00 | 0.05 | 0.00 | 90 | 1042.3 |
| 20260902135424 | 21 | 360 | 0.0 | 1.6 | 0.00 | 0.05 | 0.00 | 91 | 1042.2 |
| 20260902134523 | 21 | 360 | 0.0 | 0.0 | 0.00 | 0.05 | 0.00 | 91 | 1042.3 |
| 20260902133524 | 20 | 360 | 0.0 | 0.0 | 0.00 | 0.05 | 0.00 | 91 | 1042.2 |
| 20260902132524 | 20 | 315 | 0.0 | 0.0 | 0.00 | 0.05 | 0.00 | 92 | 1042.1 |